STARLINK-1445 (45662 NORAD) Tracking and Keplerian Element Data

This shows tracking and keplerian element data for the satellite.

Feedback or suggestion? Click here.




ElementValue
Catalog45662
NameSTARLINK-1445
Epoch Orbit556
Epoch Day185.50001157
Epoch Year2020
RAAN25.3238
Inclination53
Eccentricity0.0001264
Argument of Perigee92.1956
Mean Anonmoly142.8747
Mean Motion15.46465433
Decay Rate-0.0107748
L11 45662U 20035F 20185.50001157 -.01077480 00000-0 -23619-1 0 9999
L22 45662 53.0000 25.3238 0001264 92.1956 142.8747 15.46465433 5561

Live tracking and technical data element details for STARLINK-1445 (NORAD 45662). STARLINK-1445 can be tracked NOW for your location showing map with azimuth and elevation plus other details from your city location.

Track the satellite on the map from your city or location and see movement details for azimuth, elevation, latitude, longitude, range, height, and movement on the map or in text.







IsCatalogInMostPopularTable: catalog: 45662, numindb: 4
Update: records affected: 1



GetName: 45662 STARLINK-1445

Hit Count: updated at: Sat, 04 Jul 2020 01:17:58 GMT